Time,TemperatureF,DewpointF,PressureIn,WindDirection,WindDirectionDegrees,WindSpeedMPH,WindSpeedGustMPH,Humidity,HourlyPrecipIn,Conditions,Clouds,dailyrainin,SoftwareType,DateUTC
2013-06-18 00:00:00,63.1,60.7,29.75,SSW,202,0.0,6.0,92,0.00,,SKC,0.00,VWS V14.01,2013-06-18 04:00:00,
2013-06-18 01:00:00,62.5,60.5,29.73,SSW,202,0.0,0.0,93,0.00,,SKC,0.00,VWS V14.01,2013-06-18 05:00:00,
2013-06-18 02:00:00,62.3,60.0,29.73,SSE,158,1.0,7.0,92,0.00,,SKC,0.00,VWS V14.01,2013-06-18 06:00:00,
2013-06-18 03:00:00,62.0,59.3,29.73,SW,225,0.0,7.0,91,0.00,,SKC,0.00,VWS V14.01,2013-06-18 07:00:00,
2013-06-18 04:00:00,61.4,59.1,29.74,SW,225,0.0,0.0,92,0.00,,SKC,0.00,VWS V14.01,2013-06-18 08:00:00,
2013-06-18 05:00:00,61.0,58.7,29.75,SW,225,0.0,7.0,92,0.00,,SKC,0.00,VWS V14.01,2013-06-18 09:00:00,
2013-06-18 06:00:00,60.7,58.4,29.76,South,180,0.0,5.0,92,0.00,,SKC,0.00,VWS V14.01,2013-06-18 10:00:00,
2013-06-18 07:00:00,62.0,58.4,29.75,SSW,202,2.0,10.0,88,0.00,,SKC,0.00,VWS V14.01,2013-06-18 11:00:00,
2013-06-18 08:00:00,64.2,59.3,29.74,SSW,202,1.0,10.0,84,0.00,,SKC,0.00,VWS V14.01,2013-06-18 12:00:00,
2013-06-18 09:00:00,66.7,60.3,29.75,SW,225,1.0,9.0,80,0.00,,SKC,0.00,VWS V14.01,2013-06-18 13:00:00,
2013-06-18 10:00:00,70.1,61.8,29.74,SSW,202,0.0,7.0,75,0.00,,SKC,0.00,VWS V14.01,2013-06-18 14:00:00,
2013-06-18 11:00:00,73.6,63.2,29.75,East,90,1.0,8.0,70,0.00,,SKC,0.00,VWS V14.01,2013-06-18 15:00:00,
2013-06-18 12:00:00,74.9,62.8,29.75,East,90,1.0,8.0,66,0.00,,SKC,0.00,VWS V14.01,2013-06-18 16:00:00,
2013-06-18 13:00:00,75.5,63.8,29.75,East,90,2.0,10.0,67,0.00,,SKC,0.00,VWS V14.01,2013-06-18 17:00:00,
2013-06-18 14:00:00,75.5,63.4,29.74,East,90,2.0,13.0,66,0.00,,SKC,0.00,VWS V14.01,2013-06-18 18:00:00,
2013-06-18 15:00:00,76.4,61.5,29.73,ESE,112,2.0,12.0,60,0.00,,SKC,0.00,VWS V14.01,2013-06-18 19:00:00,
2013-06-18 16:00:00,77.0,61.1,29.72,East,90,1.0,9.0,58,0.00,,SKC,0.00,VWS V14.01,2013-06-18 20:00:00,
2013-06-18 17:00:00,76.2,62.2,29.74,East,90,1.0,9.0,62,0.00,,SKC,0.00,VWS V14.01,2013-06-18 21:00:00,
2013-06-18 18:00:00,73.3,60.0,29.76,East,90,3.0,12.0,63,0.00,,SKC,0.00,VWS V14.01,2013-06-18 22:00:00,
2013-06-18 19:00:00,70.3,58.0,29.78,ESE,112,4.0,14.0,65,0.00,,SKC,0.00,VWS V14.01,2013-06-18 23:00:00,
2013-06-18 20:00:00,66.7,53.7,29.82,ESE,112,2.0,11.0,63,0.00,,SKC,0.00,VWS V14.01,2013-06-19 00:00:00,
2013-06-18 21:00:00,63.5,52.8,29.83,ESE,112,2.0,10.0,68,0.00,,SKC,0.00,VWS V14.01,2013-06-19 01:00:00,
2013-06-18 22:00:00,61.5,52.0,29.85,ESE,112,1.0,8.0,71,0.00,,SKC,0.00,VWS V14.01,2013-06-19 02:00:00,
2013-06-18 23:00:00,59.8,50.8,29.86,East,90,1.0,8.0,72,0.00,,SKC,0.00,VWS V14.01,2013-06-19 03:00:00,